Theta_e
364 366 360 364 364 363 363 362 358 360 364 361 361 362 370 367 367 367 363 368 368 368 372 373 374 374 364 372 378 372 375 376 375 366 367 370 368 358 356 356 359 368
364 364 366 363 367 368 368 364 364 364 365 368 364 371 366 367 363 364 365 367 367 366 372 368 371 372 372 370 371 374 374 374 370 364 367 366 367 361 358 358 356 367
361 362 360 358 357 357 358 361 365 363 360 360 365 366 362 362 361 368 370 367 365 362 372 372 370 371 368 368 371 370 369 373 368 365 369 367 367 369 368 358 360 358
362 361 358 357 357 358 357 360 362 365 362 364 360 360 359 364 363 361 368 367 368 369 366 368 367 365 367 369 373 369 366 373 370 372 369 372 371 367 364 362 359 359
358 359 359 358 359 362 361 358 356 358 358 361 358 367 366 364 369 361 364 365 371 366 370 367 367 365 369 370 370 370 368 368 369 372 371 369 372 368 361 363 365 359
361 363 363 360 359 361 357 356 357 356 357 359 358 360 358 362 363 363 361 360 359 360 361 362 364 362 367 369 370 369 366 362 366 370 367 367 365 363 357 362 368 364
357 358 357 357 355 356 356 356 357 360 357 357 361 359 358 360 362 362 364 361 358 360 357 363 368 365 363 368 370 370 373 370 370 369 368 367 368 366 360 361 367 367
355 356 357 358 356 354 355 354 355 358 360 360 355 358 359 356 360 357 360 361 359 360 362 362 367 372 361 364 367 368 365 363 365 368 371 369 369 369 369 361 367 369
353 355 356 356 354 354 353 353 355 356 358 357 355 356 360 360 359 358 363 364 362 366 369 365 368 365 364 366 369 368 366 361 359 365 367 364 362 364 362 365 363 364
354 353 352 353 352 352 352 353 353 354 357 355 355 355 355 358 359 359 364 367 362 366 366 365 364 367 364 363 367 366 367 370 368 364 363 362 364 362 360 362 360 363
353 350 350 351 350 350 350 351 351 352 355 356 355 353 354 356 361 364 370 368 358 360 364 367 364 366 366 360 362 363 366 364 364 365 364 365 365 366 363 367 365 361
359 353 350 350 350 349 349 349 350 351 352 355 355 355 356 355 359 359 358 363 365 362 361 367 368 367 368 366 360 360 361 360 362 364 362 365 364 361 362 362 359 362
352 356 351 349 351 352 350 351 349 350 351 352 355 357 356 354 353 358 361 362 366 363 358 363 366 362 368 369 365 365 365 364 359 359 361 361 360 357 356 356 357 356
353 356 356 358 360 366 361 351 351 349 352 356 357 355 353 353 353 352 355 356 359 362 365 363 364 362 366 368 366 363 360 360 363 364 361 360 359 361 358 354 354 352
367 360 363 367 369 371 367 363 355 354 358 357 356 354 351 352 353 354 354 355 357 360 360 358 355 356 358 360 361 363 361 358 362 360 358 360 360 356 357 357 355 353
363 359 360 359 361 364 367 364 356 359 353 354 354 352 354 357 357 358 353 354 356 356 357 355 354 351 361 364 364 362 362 359 361 370 365 369 362 361 355 353 352 350
363 358 357 356 359 357 358 364 367 364 359 361 363 361 360 367 363 357 354 353 353 353 354 353 352 352 357 343 348 357 361 362 363 367 368 366 361 365 360 357 356 354
363 357 355 354 353 352 355 356 357 357 359 361 359 356 364 360 355 357 363 355 354 352 351 352 352 354 334 337 343 345 359 360 356 356 354 358 360 357 355 353 352 350
357 355 354 353 353 351 351 351 352 353 354 353 355 354 352 353 355 356 359 360 359 360 353 352 350 340 330 333 337 341 347 362 352 353 350 348 352 357 356 357 357 357
355 355 353 351 351 352 352 352 354 357 357 356 360 359 355 356 351 348 351 353 355 355 360 349 346 334 329 330 331 333 339 352 355 352 352 353 356 353 348 353 362 362
352 354 353 350 350 352 352 353 356 357 357 358 355 354 356 351 350 351 351 354 354 353 352 348 337 324 326 328 327 329 332 353 358 353 353 358 356 357 360 358 362 364
347 346 347 349 350 349 347 349 354 356 355 355 354 356 353 352 351 350 350 351 353 352 352 350 334 320 323 324 325 328 335 353 357 360 358 354 358 356 358 363 362 365
344 343 343 344 345 347 347 349 351 353 353 353 354 353 351 348 347 347 351 352 353 353 353 349 336 322 318 318 321 324 342 356 359 360 362 359 354 357 358 360 362 363
341 341 340 340 342 342 343 345 348 348 348 350 352 349 349 351 351 350 351 353 352 352 353 341 330 321 315 315 317 320 336 352 359 361 361 360 358 356 358 358 357 361
339 339 338 339 339 340 341 340 341 344 348 349 351 350 349 350 350 348 347 349 350 352 348 338 331 325 314 313 315 317 334 353 360 359 356 356 356 355 356 358 352 349
338 339 339 338 337 337 336 337 340 340 343 346 348 348 349 349 349 348 346 347 348 348 340 334 330 328 322 311 312 315 323 352 358 354 351 353 355 355 355 355 354 348
Wind_Speed
6 5 6 6 5 5 6 6 7 6 4 4 4 4 2 5 4 3 5 3 5 5 4 3 3 3 3 3 2 3 2 0 0 1 2 2 2 2 1 1 4 2
8 7 5 6 5 4 5 5 5 4 5 4 4 3 4 4 7 5 6 4 4 5 4 5 4 3 3 2 1 2 2 2 2 1 2 3 3 0 1 1 5 1
8 8 8 8 8 8 8 7 5 5 5 6 4 4 4 5 5 5 4 6 5 6 5 3 4 4 4 5 3 3 4 3 3 2 2 2 4 2 2 3 3 3
8 8 9 9 8 9 7 6 6 4 6 5 7 7 5 3 5 5 4 5 4 4 5 5 5 5 4 5 5 4 3 3 3 3 3 2 3 3 1 4 5 3
11 9 9 8 5 5 5 6 8 7 6 5 6 3 4 3 2 6 5 5 4 4 4 4 4 5 4 4 4 3 3 3 2 1 2 3 4 4 5 5 4 4
9 7 6 6 6 6 7 7 8 8 8 8 7 6 5 5 5 6 5 7 7 7 7 7 6 5 6 4 3 4 3 4 3 3 4 4 4 4 4 3 2 3
11 10 10 9 10 9 9 8 7 6 6 5 4 6 7 8 6 5 5 5 7 7 8 6 5 5 5 5 4 4 3 2 2 3 4 4 3 4 3 5 4 3
12 11 10 9 10 9 9 9 8 7 7 5 8 6 6 7 6 7 7 6 6 5 5 5 5 3 5 4 5 4 5 5 5 5 5 5 4 3 2 4 2 3
11 11 10 11 12 10 10 10 9 8 7 9 9 7 5 6 8 8 5 6 5 4 3 4 2 5 5 4 4 4 4 5 5 5 5 5 5 4 4 4 4 4
9 9 12 12 11 10 11 11 10 9 7 8 8 8 9 7 7 8 4 5 5 4 5 5 8 7 5 4 4 5 4 3 3 3 4 5 4 3 4 4 4 3
9 11 11 11 11 10 11 11 10 9 8 9 9 8 8 8 5 4 3 3 7 5 4 4 5 5 5 6 4 5 5 5 5 5 6 5 5 4 4 3 3 3
6 8 10 10 10 11 11 11 10 10 10 9 8 8 7 5 3 4 5 6 5 6 5 5 4 4 5 5 6 5 6 5 4 4 4 3 3 5 5 5 5 4
9 6 8 9 8 8 9 8 10 10 10 9 7 5 4 6 7 6 4 4 4 5 7 5 5 6 5 5 5 4 3 4 6 5 4 4 5 6 6 6 7 6
8 6 6 5 4 4 4 7 8 9 6 5 5 6 7 8 9 9 9 8 8 7 4 5 5 6 5 4 4 5 5 5 3 1 3 4 5 5 4 6 6 6
4 2 4 3 4 2 3 4 5 5 3 7 7 7 8 10 10 10 8 8 6 6 6 7 8 9 7 6 5 5 5 5 3 4 4 4 4 5 5 5 6 5
3 6 2 4 7 7 2 2 4 4 5 5 6 9 9 7 8 6 7 6 6 8 7 7 7 7 7 11 9 4 4 5 2 1 2 1 2 3 6 7 7 7
5 6 3 1 3 4 6 6 5 5 5 4 3 3 5 4 4 5 6 6 9 8 6 6 7 4 7 12 9 9 6 4 3 2 2 2 3 3 5 5 5 6
4 6 3 1 2 3 3 5 5 5 6 8 8 8 5 4 6 5 3 6 5 6 6 5 3 10 19 10 11 12 10 6 5 4 4 3 5 6 5 5 6 7
3 5 3 2 1 1 4 4 4 5 6 4 4 5 11 14 11 8 4 3 3 1 1 3 7 6 9 9 9 13 16 9 6 4 4 5 4 3 3 3 4 4
3 2 3 4 0 1 1 2 3 3 4 4 3 3 1 2 9 8 12 12 9 6 7 7 5 5 7 7 7 7 5 5 6 5 4 3 3 4 5 4 3 4
3 1 2 2 5 3 3 3 3 2 2 1 3 2 3 4 3 1 3 1 5 6 6 5 3 8 10 10 10 9 7 4 3 4 4 2 3 3 4 6 7 6
5 7 7 3 4 6 6 6 4 2 0 2 2 0 2 2 1 2 3 2 2 2 1 4 5 11 10 10 10 9 9 4 3 2 3 4 2 6 4 4 4 6
6 6 4 4 5 3 1 3 2 2 1 2 1 2 4 6 5 0 3 4 4 2 2 5 6 9 10 11 10 11 5 2 3 4 2 4 4 4 4 5 6 7
6 6 6 6 5 5 3 3 3 2 2 2 2 2 3 3 2 1 3 3 3 2 2 6 5 8 11 11 9 9 6 3 3 4 2 3 4 4 4 5 8 14
5 5 6 5 5 6 6 5 5 4 3 2 2 2 3 2 2 3 5 4 3 3 10 8 6 7 11 10 10 9 6 3 3 2 3 2 1 3 3 2 5 8
5 5 5 5 5 5 5 4 3 2 3 1 1 1 1 3 4 4 5 4 4 4 6 7 7 6 8 12 12 12 9 3 2 4 3 2 2 2 2 3 5 5
Wind_Direction
177 183 182 177 184 172 177 178 184 186 198 188 182 204 211 164 167 189 175 216 164 171 166 183 186 180 191 171 183 148 134 199 128 223 247 251 116 229 251 344 303 217
181 184 181 184 181 189 159 188 187 183 180 179 190 179 194 191 162 189 199 169 177 178 178 182 186 189 200 138 160 156 122 169 258 305 50 332 312 295 165 150 296 294
187 187 188 191 188 197 188 191 171 187 185 193 159 191 201 196 185 166 197 167 195 180 178 187 187 179 176 153 200 202 180 190 207 183 112 253 261 180 228 153 201 314
191 194 194 196 194 192 199 186 180 203 176 193 184 186 208 158 186 186 185 187 194 190 178 190 192 189 190 171 187 194 191 193 208 159 193 223 240 278 255 128 226 167
193 193 199 201 202 190 202 189 200 187 210 169 206 212 134 173 202 198 173 185 203 187 187 201 195 197 187 177 188 206 176 195 189 157 241 236 219 218 230 186 189 198
194 197 198 203 186 181 204 212 203 198 200 175 204 184 179 165 214 197 190 186 196 211 193 199 195 205 186 192 186 209 194 207 174 198 217 236 244 223 235 64 234 256
194 192 202 203 208 185 194 213 208 199 201 210 198 180 194 181 201 196 181 204 205 196 213 173 194 214 187 180 188 187 192 201 208 202 216 238 245 264 235 180 230 219
195 191 201 200 208 203 206 202 209 190 184 209 220 200 198 194 194 206 193 208 211 198 218 168 186 197 226 189 185 197 211 203 205 206 219 226 246 247 267 276 220 202
196 189 196 203 204 209 205 210 205 207 186 199 212 193 227 184 203 213 191 193 214 174 204 142 201 220 221 217 177 189 219 228 209 193 213 229 226 217 233 231 227 228
197 196 196 199 207 209 210 211 206 206 199 209 216 192 200 219 194 212 194 187 200 194 191 178 183 206 215 221 187 199 213 215 187 210 236 237 248 252 229 227 246 235
193 204 202 201 206 210 213 212 214 207 201 208 208 222 209 206 192 185 185 172 207 206 192 206 192 199 209 226 217 208 204 217 215 206 219 223 228 232 243 252 254 262
201 200 210 205 209 213 214 213 214 217 209 198 213 214 215 208 159 227 203 192 204 213 204 200 210 207 208 226 231 219 213 218 232 236 228 231 239 231 228 227 240 234
208 207 213 215 212 223 219 214 212 218 220 209 190 217 219 233 193 196 229 211 195 219 223 204 202 213 212 206 224 248 237 214 237 249 225 214 229 243 246 238 227 229
209 205 220 235 219 218 241 244 233 220 215 167 194 204 215 220 225 206 203 209 195 209 227 229 210 220 218 220 220 221 234 228 220 226 287 275 275 281 280 278 278 267
249 319 321 312 292 213 219 260 260 252 223 182 189 206 219 225 222 214 197 204 200 201 214 222 224 219 221 211 215 217 249 266 195 205 245 262 276 286 284 264 260 268
91 82 330 6 357 337 299 221 261 293 259 241 211 207 211 221 228 208 204 193 199 210 207 217 235 242 221 210 193 201 211 239 238 196 249 279 281 282 286 285 292 289
92 112 183 154 7 354 354 355 354 334 316 306 293 270 250 233 226 243 225 206 205 207 209 221 239 253 270 181 173 186 205 203 239 261 217 232 262 257 261 273 282 287
101 87 335 90 70 317 345 352 353 351 349 349 333 308 297 267 242 232 235 240 237 229 212 232 22 0 336 267 182 186 194 203 209 219 236 218 218 237 249 262 268 276
56 131 233 236 133 15 339 348 350 336 323 313 325 10 347 327 323 302 260 276 260 291 309 48 95 2 324 334 268 198 191 208 227 222 254 272 282 267 257 242 255 267
26 45 203 257 29 304 217 256 268 263 249 274 327 51 317 303 60 3 350 329 340 341 45 50 61 1 10 20 36 5 312 237 215 233 234 258 273 291 291 309 328 319
37 211 176 215 268 230 217 266 252 229 234 37 32 339 349 45 51 149 195 302 19 29 123 134 62 12 30 31 21 14 6 343 294 285 275 271 285 305 6 15 16 6
52 53 62 105 220 248 255 256 259 212 92 123 223 219 49 335 316 274 288 305 64 80 140 95 59 24 28 29 19 10 1 339 289 271 269 274 323 48 52 45 30 16
67 72 62 52 39 50 156 274 297 291 175 121 299 120 182 236 231 269 2 357 13 54 105 82 47 25 30 24 15 8 353 325 304 294 333 55 62 42 40 27 31 25
65 67 62 69 83 86 72 46 27 17 45 35 71 75 152 263 306 84 48 22 16 2 84 88 71 38 34 27 18 4 342 310 317 325 26 43 62 74 69 67 52 49
80 96 84 65 62 64 65 58 33 26 40 75 104 138 153 154 92 85 71 51 38 46 85 83 76 45 34 36 31 14 349 308 309 6 31 42 67 97 103 87 85 69
71 72 73 86 90 95 87 66 70 38 20 331 128 94 120 136 115 121 125 145 157 125 82 80 75 54 34 34 31 26 12 356 64 76 42 41 39 61 94 102 108 130